星链-5957 (STARLINK-5957 )

导读 | 豆包AI

STARLINK-5957是美国SpaceX公司星链星座中的一员,于2023年3月24日发射入轨,属于星链第二代组网卫星。它运行在近地轨道,配备相控阵天线与氪离子推进系统,支持激光星间通信,可提供高速低延迟的卫星宽带服务,服务覆盖全球多数区域,助力偏远地区接入互联网,同时也承担应急通信等多元任务。截至2026年3月,卫星已在轨运行近三年,状态良好。

Basic Information
目录编号:
55995
目录名称:
STARLINK-5957
国际标识:
2023-042K
轨道中心:
EARTH
卫星名称:
星链-5957
卫星全名:
星链-5957 (STARLINK-5957 )
卫星状态:
已陨落 最后检测时间 2025-12-26
发射日期:
2023-03-24 UTC
国别 :
美国 (US)
星等 :
--
Orbit Information
数据来源 国际轨道数据
星历时间: 2025-12-26T18:26:24+0800
轨道信息已过期125天
半长轴: 6549.937km
偏心率: 0.0001126
轨道倾角: 42.985°
近地点辐角 291.387°
升交点赤经 62.514°
平近点角 68.690°
近地点: 171.062km
远地点: 172.538km
周期: 87.926分钟
每日圈数: 16.377483
Detailed Information
固有亮度:
5
最大亮度:
2.5
卫星平台:
Starlink v1.5
覆盖范围:
全球
运营商:
太空探索技术公司
运营商所在国:
美国
制造商(研发单位):
太空探索技术公司
制造商所在国:
美国
使用方式:
暂无
Satellite Introduction
星链(Starlink)计划是由太空探索技术公司(SpaceX)提出的一个巨型低轨卫星互联网星座项目,计划在2019年至2024年间在太空搭建由约1.2万颗卫星组成的“星链”网络,其中1584颗将部署在地球上空550千米处的近地轨道,并从2020年开始工作。该卫星仍在工作。